Date String (YYYY-MM-DD hh:mm:ss) UTC,Instrument flags,Ambient pressure (hPa),Sample flow (lpm),Bypass flow (lpm),Sample temperature (°C),Ambient temperature (°C),ASC tube jacket temperature (°C),LED temperature (°C),Box temperature (°C),Sample RH (%),Span deviation,Mass concentration (μg/m³),Mass concentration (μg/m³),Mass concentration (μg/m³)
DateTimeUTC,F1_M11,P_M11,Q1_M11,Q2_M11,T1_M11,T2_M11,T3_M11,T4_M11,T5_M11,U1_M11,ZSPAN_M11,X0_M11,X2_M11,X1_M11
2022-11-26 08:00:00,,0823.4,5.01,0.00,23.3,21.8,00.0,32.3,25.0,12.2,0000.0,0002.60,0000.84,0000.63
2022-11-26 08:01:00,,0823.4,5.00,0.00,23.3,21.8,00.0,32.3,25.0,12.2,0000.0,0002.56,0000.82,0000.64
2022-11-26 08:02:00,,0823.4,5.00,0.00,23.3,21.8,00.0,32.3,25.0,12.2,0000.0,0002.51,0000.79,0000.63
2022-11-26 08:03:00,,0823.3,4.99,0.00,23.3,21.8,00.0,32.3,25.1,12.1,0000.0,0001.64,0000.78,0000.63
2022-11-26 08:04:00,,0823.3,4.99,0.00,23.3,21.8,00.0,32.3,25.1,12.0,0000.0,0001.33,0000.77,0000.61
2022-11-26 08:05:00,,0823.3,5.01,0.00,23.3,21.8,00.0,32.3,25.0,12.1,0000.0,0001.28,0000.74,0000.61
2022-11-26 08:06:00,,0823.4,5.01,0.00,23.3,21.8,00.0,32.3,25.0,12.0,0000.0,0001.31,0000.76,0000.60
2022-11-26 08:07:00,,0823.3,5.01,0.00,23.3,21.8,00.0,32.3,25.1,11.9,0000.0,0001.36,0000.76,0000.60
2022-11-26 08:08:00,,0823.4,4.99,0.00,23.3,21.8,00.0,32.3,25.0,11.9,0000.0,0001.36,0000.76,0000.59
2022-11-26 08:09:00,,0823.4,4.99,0.00,23.3,21.8,00.0,32.3,24.9,11.9,0000.0,0001.28,0000.73,0000.57
2022-11-26 08:10:00,,0823.4,5.01,0.00,23.3,21.8,00.0,32.3,24.9,11.8,0000.0,0001.17,0000.72,0000.56
2022-11-26 08:11:00,,0823.4,5.00,0.00,23.3,21.8,00.0,32.3,25.0,11.8,0000.0,0001.13,0000.69,0000.55
2022-11-26 08:12:00,,0823.4,4.99,0.00,23.3,21.8,00.0,32.3,25.0,11.8,0000.0,0001.71,0000.69,0000.54
2022-11-26 08:13:00,,0823.4,4.99,0.00,23.3,21.8,00.0,32.3,25.0,11.8,0000.0,0001.66,0000.68,0000.53
2022-11-26 08:14:00,,0823.4,5.00,0.00,23.3,21.8,00.0,32.3,24.9,11.8,0000.0,0001.63,0000.66,0000.52
2022-11-26 08:15:00,,0823.3,5.01,0.00,23.3,21.8,00.0,32.2,25.0,11.8,0000.0,0001.63,0000.67,0000.51
2022-11-26 08:16:00,,0823.3,5.00,0.00,23.3,21.8,00.0,32.2,25.0,11.9,0000.0,0001.63,0000.66,0000.51
2022-11-26 08:17:00,,0823.3,5.00,0.00,23.3,21.8,00.0,32.2,25.0,11.9,0000.0,0001.62,0000.65,0000.50
2022-11-26 08:18:00,,0823.3,5.00,0.00,23.3,21.8,00.0,32.2,25.0,12.1,0000.0,0001.55,0000.66,0000.50
2022-11-26 08:19:00,,0823.3,5.00,0.00,23.3,21.8,00.0,32.2,25.0,12.2,0000.0,0001.47,0000.64,0000.50
2022-11-26 08:20:00,,0823.3,5.00,0.00,23.3,21.8,00.0,32.2,25.0,12.0,0000.0,0001.44,0000.62,0000.50
2022-11-26 08:21:00,,0823.2,5.00,0.00,23.3,21.8,00.0,32.2,25.0,11.7,0000.0,0001.47,0000.63,0000.49
2022-11-26 08:22:00,,0823.2,5.01,0.00,23.3,21.8,00.0,32.2,25.0,11.6,0000.0,0001.47,0000.62,0000.49
2022-11-26 08:23:00,,0823.2,5.00,0.00,23.3,21.8,00.0,32.2,25.0,11.7,0000.0,0000.87,0000.60,0000.48
2022-11-26 08:24:00,,0823.1,4.99,0.00,23.3,21.8,00.0,32.2,25.0,11.7,0000.0,0000.84,0000.59,0000.47
2022-11-26 08:25:00,,0823.2,5.00,0.00,23.3,21.8,00.0,32.2,25.0,11.7,0000.0,0000.84,0000.59,0000.47
2022-11-26 08:26:00,,0823.1,5.00,0.00,23.3,21.8,00.0,32.2,25.0,11.7,0000.0,0000.88,0000.60,0000.47
2022-11-26 08:27:00,,0823.1,5.00,0.00,23.3,21.8,00.0,32.2,25.0,11.7,0000.0,0000.92,0000.61,0000.47
2022-11-26 08:28:00,,0823.0,5.00,0.00,23.3,21.8,00.0,32.2,25.0,11.6,0000.0,0000.90,0000.60,0000.46
2022-11-26 08:29:00,,0823.1,4.99,0.00,23.3,21.8,00.0,32.2,25.0,11.7,0000.0,0000.87,0000.58,0000.45
2022-11-26 08:30:00,,0823.0,5.00,0.00,23.3,21.8,00.0,32.2,25.0,11.7,0000.0,0000.92,0000.59,0000.45
2022-11-26 08:31:00,,0823.0,5.00,0.00,23.3,21.8,00.0,32.2,25.0,11.8,0000.0,0000.95,0000.61,0000.45
2022-11-26 08:32:00,,0823.0,5.01,0.00,23.3,21.8,00.0,32.2,25.0,11.7,0000.0,0000.89,0000.60,0000.45
2022-11-26 08:33:00,,0822.9,5.01,0.00,23.3,21.8,00.0,32.2,25.0,11.7,0000.0,0000.90,0000.61,0000.46
2022-11-26 08:34:00,,0823.0,5.00,0.00,23.3,21.8,00.0,32.2,25.0,11.6,0000.0,0000.94,0000.63,0000.47
2022-11-26 08:35:00,,0823.0,4.99,0.00,23.3,21.8,00.0,32.2,25.0,11.7,0000.0,0000.96,0000.64,0000.48
2022-11-26 08:36:00,,0823.0,4.99,0.00,23.3,21.8,00.0,32.2,25.0,11.6,0000.0,0000.94,0000.63,0000.48
2022-11-26 08:37:00,,0823.2,5.00,0.00,23.2,21.8,00.0,32.2,25.0,11.6,0000.0,0000.87,0000.60,0000.48
2022-11-26 08:38:00,,0823.0,5.01,0.00,23.2,21.8,00.0,32.2,24.9,11.6,0000.0,0000.84,0000.59,0000.48
2022-11-26 08:39:00,,0822.9,5.01,0.00,23.2,21.8,00.0,32.2,25.0,11.7,0000.0,0000.95,0000.61,0000.48
2022-11-26 08:40:00,,0823.0,5.00,0.00,23.2,21.8,00.0,32.2,25.0,11.7,0000.0,0000.99,0000.62,0000.49
2022-11-26 08:41:00,,0823.0,4.99,0.00,23.2,21.8,00.0,32.2,25.0,11.7,0000.0,0001.02,0000.61,0000.48
2022-11-26 08:42:00,,0823.0,4.99,0.00,23.2,21.8,00.0,32.2,25.0,11.7,0000.0,0001.01,0000.60,0000.49
2022-11-26 08:43:00,,0822.9,5.01,0.00,23.2,21.8,00.0,32.2,25.1,11.9,0000.0,0001.01,0000.60,0000.49
2022-11-26 08:44:00,,0822.9,5.00,0.00,23.2,21.8,00.0,32.2,25.1,11.9,0000.0,0000.99,0000.58,0000.48
2022-11-26 08:45:00,,0823.0,5.00,0.00,23.2,21.8,00.0,32.2,25.1,12.4,0000.0,0001.00,0000.59,0000.50
2022-11-26 08:46:00,,0823.0,5.01,0.00,23.3,21.8,00.0,32.2,25.2,12.8,0000.0,0001.09,0000.66,0000.55
2022-11-26 08:47:00,,0823.0,5.00,0.00,23.3,21.9,00.0,32.2,25.1,12.9,0000.0,0001.30,0000.73,0000.61
2022-11-26 08:48:00,,0823.0,4.99,0.00,23.2,21.9,00.0,32.2,25.1,12.9,0000.0,0001.47,0000.85,0000.69
2022-11-26 08:49:00,,0823.0,5.00,0.00,23.2,21.9,00.0,32.2,25.1,12.9,0000.0,0001.63,0000.95,0000.77
2022-11-26 08:50:00,,0823.0,5.00,0.00,23.2,21.9,00.0,32.2,25.1,12.9,0000.0,0002.26,0001.02,0000.84
2022-11-26 08:51:00,,0822.9,5.00,0.00,23.2,21.9,00.0,32.2,25.1,12.9,0000.0,0002.40,0001.07,0000.89
2022-11-26 08:52:00,,0823.0,5.00,0.00,23.2,21.9,00.0,32.2,25.1,13.0,0000.0,0002.39,0001.12,0000.96
2022-11-26 08:53:00,,0822.9,5.01,0.00,23.2,21.9,00.0,32.2,25.1,13.0,0000.0,0002.51,0001.19,0001.02
2022-11-26 08:54:00,,0822.9,5.00,0.00,23.2,21.9,00.0,32.2,25.1,13.0,0000.0,0002.76,0001.27,0001.08
2022-11-26 08:55:00,,0822.9,5.00,0.00,23.2,21.9,00.0,32.2,25.1,12.9,0000.0,0003.11,0001.35,0001.14
2022-11-26 08:56:00,,0822.9,5.00,0.00,23.2,21.9,00.0,32.2,25.1,12.9,0000.0,0003.23,0001.42,0001.19
2022-11-26 08:57:00,,0822.9,4.98,0.00,23.3,21.9,00.0,32.2,25.1,12.9,0000.0,0003.17,0001.39,0001.18
2022-11-26 08:58:00,,0822.9,4.99,0.00,23.3,21.9,00.0,32.2,25.1,12.9,0000.0,0003.23,0001.39,0001.16
2022-11-26 08:59:00,,0822.9,5.01,0.00,23.3,21.9,00.0,32.2,25.1,12.9,0000.0,0003.25,0001.39,0001.14
